GFSNW_prec_pwat_114.txt.gz
Precipitable_Water
0.36 0.36 0.37 0.36 0.36 0.36 0.32 0.21 0.08 0.31 0.35 0.16 0.19 0.14 0.18 0.22 0.20 0.22 0.22 0.22 0.21 0.18 0.17 0.16 0.14 0.13 0.14 0.20 0.24 0.24 0.25 0.23 0.19 0.23 0.31 0.31 0.33 0.29 0.28 0.19 0.20 0.25 0.24 0.19
0.36 0.37 0.37 0.37 0.36 0.36 0.29 0.17 0.17 0.31 0.30 0.12 0.14 0.19 0.18 0.19 0.17 0.20 0.22 0.20 0.23 0.23 0.18 0.16 0.19 0.20 0.22 0.21 0.19 0.22 0.27 0.22 0.17 0.19 0.27 0.31 0.25 0.24 0.26 0.26 0.24 0.17 0.15 0.15
0.39 0.40 0.37 0.36 0.37 0.38 0.32 0.20 0.12 0.19 0.26 0.24 0.19 0.20 0.18 0.19 0.23 0.21 0.22 0.21 0.23 0.21 0.19 0.23 0.18 0.18 0.24 0.25 0.21 0.25 0.28 0.22 0.19 0.16 0.18 0.21 0.19 0.21 0.21 0.20 0.14 0.14 0.14 0.13
0.38 0.37 0.35 0.34 0.38 0.40 0.33 0.24 0.17 0.22 0.14 0.19 0.22 0.23 0.19 0.15 0.16 0.24 0.27 0.23 0.23 0.24 0.20 0.22 0.21 0.22 0.24 0.23 0.22 0.21 0.27 0.17 0.19 0.18 0.20 0.19 0.17 0.18 0.20 0.17 0.15 0.13 0.11 0.12
0.38 0.36 0.35 0.35 0.39 0.42 0.30 0.20 0.19 0.25 0.22 0.24 0.21 0.19 0.15 0.16 0.20 0.25 0.24 0.25 0.27 0.28 0.24 0.24 0.25 0.24 0.25 0.21 0.23 0.20 0.22 0.16 0.21 0.15 0.19 0.20 0.18 0.18 0.17 0.14 0.12 0.14 0.13 0.10
0.38 0.36 0.36 0.38 0.40 0.42 0.30 0.32 0.34 0.27 0.24 0.21 0.19 0.19 0.20 0.22 0.27 0.28 0.34 0.31 0.29 0.28 0.30 0.35 0.35 0.35 0.31 0.27 0.24 0.22 0.19 0.15 0.16 0.11 0.16 0.16 0.12 0.11 0.12 0.12 0.12 0.10 0.07 0.07
0.36 0.35 0.37 0.42 0.40 0.40 0.35 0.34 0.34 0.27 0.19 0.20 0.20 0.22 0.25 0.28 0.29 0.27 0.31 0.33 0.29 0.34 0.38 0.37 0.35 0.32 0.28 0.25 0.22 0.27 0.20 0.18 0.17 0.11 0.14 0.07 0.09 0.15 0.14 0.11 0.10 0.14 0.15 0.14
0.35 0.35 0.39 0.42 0.42 0.41 0.38 0.40 0.36 0.29 0.19 0.19 0.20 0.23 0.27 0.29 0.28 0.26 0.28 0.29 0.31 0.39 0.34 0.24 0.18 0.16 0.15 0.15 0.18 0.19 0.22 0.19 0.14 0.10 0.09 0.09 0.09 0.10 0.09 0.13 0.13 0.23 0.24 0.29
0.34 0.38 0.40 0.44 0.45 0.43 0.39 0.42 0.46 0.36 0.22 0.16 0.25 0.25 0.26 0.25 0.24 0.23 0.25 0.31 0.33 0.35 0.28 0.23 0.15 0.12 0.14 0.13 0.14 0.25 0.25 0.27 0.21 0.17 0.13 0.11 0.12 0.16 0.25 0.24 0.14 0.33 0.42 0.41
0.35 0.39 0.40 0.43 0.44 0.45 0.43 0.44 0.50 0.37 0.23 0.24 0.27 0.25 0.25 0.29 0.27 0.22 0.23 0.25 0.26 0.32 0.24 0.19 0.17 0.15 0.21 0.17 0.18 0.22 0.25 0.26 0.21 0.21 0.18 0.18 0.18 0.16 0.24 0.17 0.20 0.46 0.49 0.49
0.37 0.39 0.41 0.43 0.45 0.46 0.48 0.45 0.53 0.38 0.26 0.25 0.28 0.29 0.26 0.27 0.28 0.21 0.24 0.21 0.26 0.22 0.21 0.21 0.21 0.21 0.24 0.24 0.25 0.26 0.24 0.22 0.22 0.22 0.18 0.13 0.28 0.32 0.25 0.35 0.48 0.52 0.53 0.53
0.38 0.39 0.41 0.43 0.47 0.50 0.53 0.43 0.53 0.49 0.33 0.27 0.35 0.35 0.37 0.34 0.32 0.30 0.28 0.24 0.27 0.27 0.23 0.23 0.25 0.22 0.24 0.24 0.20 0.34 0.23 0.29 0.24 0.25 0.22 0.30 0.35 0.38 0.45 0.48 0.51 0.52 0.50 0.50
0.40 0.40 0.41 0.42 0.45 0.50 0.54 0.48 0.50 0.43 0.32 0.29 0.29 0.24 0.29 0.35 0.35 0.36 0.24 0.26 0.31 0.32 0.38 0.31 0.28 0.21 0.26 0.21 0.23 0.27 0.33 0.39 0.31 0.29 0.33 0.33 0.34 0.43 0.48 0.52 0.54 0.55 0.56 0.56
0.38 0.40 0.40 0.41 0.46 0.50 0.52 0.49 0.50 0.43 0.33 0.21 0.20 0.31 0.26 0.34 0.37 0.37 0.37 0.32 0.37 0.37 0.37 0.29 0.28 0.24 0.31 0.25 0.28 0.29 0.34 0.37 0.33 0.34 0.39 0.43 0.43 0.47 0.47 0.52 0.56 0.54 0.55 0.54
0.42 0.42 0.39 0.44 0.47 0.48 0.52 0.53 0.50 0.45 0.33 0.21 0.21 0.27 0.26 0.28 0.31 0.31 0.34 0.36 0.35 0.33 0.29 0.27 0.25 0.32 0.31 0.33 0.33 0.31 0.37 0.34 0.31 0.30 0.43 0.44 0.46 0.55 0.57 0.54 0.54 0.56 0.52 0.48
0.41 0.38 0.38 0.43 0.48 0.49 0.48 0.37 0.47 0.47 0.42 0.29 0.18 0.25 0.24 0.27 0.30 0.33 0.33 0.33 0.34 0.33 0.31 0.28 0.32 0.37 0.33 0.27 0.26 0.35 0.37 0.44 0.46 0.40 0.50 0.52 0.54 0.56 0.57 0.55 0.55 0.55 0.55 0.53
0.40 0.40 0.41 0.46 0.49 0.49 0.40 0.38 0.43 0.49 0.46 0.31 0.20 0.20 0.30 0.38 0.38 0.34 0.34 0.38 0.38 0.36 0.35 0.32 0.32 0.33 0.35 0.29 0.23 0.33 0.40 0.42 0.46 0.49 0.49 0.44 0.46 0.47 0.54 0.53 0.53 0.54 0.52 0.49
0.39 0.38 0.45 0.52 0.52 0.53 0.45 0.51 0.56 0.52 0.39 0.35 0.20 0.21 0.26 0.37 0.31 0.31 0.42 0.38 0.40 0.39 0.37 0.37 0.34 0.37 0.36 0.27 0.34 0.38 0.38 0.39 0.39 0.41 0.45 0.44 0.46 0.48 0.49 0.52 0.51 0.47 0.46 0.46
0.39 0.42 0.53 0.52 0.47 0.40 0.43 0.54 0.57 0.52 0.38 0.23 0.24 0.21 0.20 0.39 0.37 0.39 0.41 0.43 0.32 0.41 0.33 0.34 0.36 0.32 0.27 0.32 0.35 0.35 0.37 0.36 0.35 0.37 0.39 0.41 0.41 0.42 0.44 0.45 0.45 0.43 0.43 0.42
0.44 0.52 0.41 0.34 0.42 0.54 0.54 0.47 0.37 0.35 0.35 0.33 0.25 0.29 0.23 0.32 0.34 0.36 0.34 0.38 0.33 0.27 0.33 0.40 0.32 0.29 0.36 0.38 0.39 0.39 0.39 0.38 0.39 0.36 0.36 0.37 0.37 0.38 0.40 0.40 0.41 0.41 0.41 0.41
0.47 0.38 0.36 0.47 0.58 0.46 0.40 0.30 0.27 0.29 0.24 0.28 0.28 0.28 0.25 0.33 0.25 0.29 0.37 0.32 0.33 0.25 0.29 0.30 0.28 0.26 0.32 0.38 0.38 0.40 0.39 0.38 0.37 0.37 0.38 0.37 0.37 0.37 0.37 0.38 0.39 0.39 0.39 0.39
0.47 0.48 0.53 0.51 0.41 0.34 0.27 0.23 0.25 0.22 0.19 0.26 0.26 0.28 0.30 0.31 0.38 0.33 0.35 0.30 0.30 0.22 0.34 0.29 0.24 0.29 0.35 0.36 0.38 0.37 0.36 0.35 0.34 0.35 0.34 0.35 0.35 0.35 0.35 0.36 0.37 0.37 0.36 0.36
0.53 0.44 0.37 0.35 0.32 0.23 0.18 0.16 0.19 0.18 0.22 0.26 0.28 0.26 0.32 0.36 0.37 0.33 0.32 0.26 0.24 0.31 0.25 0.23 0.25 0.30 0.32 0.33 0.33 0.33 0.34 0.33 0.32 0.31 0.32 0.33 0.33 0.34 0.33 0.33 0.35 0.36 0.35 0.35
0.38 0.32 0.26 0.24 0.21 0.22 0.22 0.20 0.20 0.23 0.23 0.28 0.32 0.30 0.31 0.37 0.33 0.33 0.26 0.29 0.30 0.22 0.19 0.20 0.26 0.29 0.31 0.31 0.32 0.31 0.30 0.30 0.29 0.29 0.30 0.30 0.31 0.31 0.31 0.32 0.33 0.34 0.34 0.34
0.35 0.33 0.21 0.23 0.26 0.29 0.29 0.30 0.27 0.28 0.30 0.31 0.33 0.35 0.35 0.31 0.30 0.30 0.27 0.23 0.20 0.21 0.20 0.23 0.28 0.29 0.29 0.29 0.30 0.30 0.28 0.27 0.27 0.27 0.28 0.28 0.29 0.29 0.29 0.30 0.32 0.33 0.34 0.34
0.33 0.31 0.26 0.29 0.28 0.28 0.31 0.31 0.30 0.35 0.36 0.38 0.36 0.31 0.28 0.27 0.28 0.25 0.22 0.20 0.18 0.21 0.24 0.27 0.28 0.28 0.28 0.28 0.29 0.28 0.28 0.27 0.26 0.27 0.27 0.27 0.26 0.26 0.27 0.28 0.29 0.30 0.32 0.32
0.29 0.28 0.32 0.30 0.30 0.29 0.31 0.33 0.32 0.39 0.36 0.29 0.32 0.25 0.24 0.30 0.24 0.22 0.24 0.20 0.21 0.25 0.27 0.29 0.30 0.29 0.28 0.29 0.29 0.29 0.28 0.27 0.27 0.26 0.26 0.25 0.25 0.25 0.25 0.25 0.27 0.28 0.29 0.30

GFSNW_prec_pwat_117.txt.gz
Precipitable_Water
0.36 0.36 0.38 0.35 0.33 0.32 0.28 0.17 0.08 0.28 0.31 0.12 0.15 0.11 0.16 0.19 0.17 0.17 0.18 0.21 0.20 0.18 0.19 0.16 0.15 0.13 0.15 0.20 0.17 0.12 0.23 0.23 0.19 0.23 0.32 0.34 0.37 0.35 0.35 0.24 0.22 0.25 0.23 0.20
0.35 0.34 0.36 0.36 0.34 0.33 0.24 0.14 0.15 0.28 0.26 0.09 0.11 0.16 0.17 0.20 0.20 0.20 0.20 0.19 0.22 0.23 0.19 0.16 0.17 0.18 0.22 0.23 0.21 0.18 0.20 0.21 0.16 0.21 0.28 0.33 0.27 0.27 0.30 0.31 0.29 0.22 0.18 0.16
0.35 0.38 0.37 0.36 0.36 0.35 0.26 0.16 0.10 0.17 0.22 0.21 0.17 0.17 0.17 0.17 0.20 0.17 0.20 0.21 0.23 0.20 0.19 0.23 0.19 0.19 0.22 0.24 0.23 0.24 0.25 0.18 0.18 0.16 0.20 0.24 0.22 0.24 0.24 0.23 0.19 0.19 0.18 0.16
0.37 0.38 0.36 0.34 0.36 0.36 0.27 0.19 0.14 0.19 0.11 0.15 0.17 0.19 0.17 0.14 0.14 0.20 0.25 0.23 0.25 0.24 0.20 0.21 0.22 0.23 0.24 0.23 0.23 0.23 0.20 0.14 0.17 0.19 0.22 0.22 0.21 0.19 0.18 0.17 0.18 0.15 0.14 0.13
0.38 0.36 0.35 0.35 0.38 0.37 0.25 0.16 0.16 0.21 0.17 0.19 0.18 0.19 0.17 0.16 0.20 0.24 0.22 0.24 0.26 0.28 0.24 0.26 0.21 0.28 0.25 0.21 0.23 0.23 0.24 0.14 0.16 0.16 0.20 0.18 0.17 0.19 0.21 0.19 0.19 0.17 0.15 0.12
0.36 0.36 0.36 0.37 0.39 0.37 0.26 0.29 0.29 0.20 0.18 0.19 0.18 0.18 0.18 0.19 0.25 0.26 0.30 0.31 0.28 0.27 0.29 0.32 0.33 0.35 0.33 0.30 0.26 0.22 0.21 0.19 0.14 0.09 0.15 0.16 0.13 0.12 0.13 0.13 0.15 0.15 0.10 0.10
0.35 0.36 0.36 0.38 0.40 0.37 0.31 0.30 0.28 0.19 0.15 0.19 0.17 0.19 0.20 0.23 0.26 0.24 0.29 0.31 0.26 0.27 0.35 0.36 0.32 0.31 0.29 0.29 0.26 0.28 0.21 0.19 0.18 0.12 0.14 0.08 0.10 0.14 0.15 0.13 0.11 0.14 0.14 0.14
0.35 0.35 0.36 0.40 0.43 0.39 0.33 0.34 0.28 0.23 0.17 0.19 0.16 0.18 0.22 0.24 0.29 0.25 0.26 0.27 0.30 0.35 0.30 0.24 0.18 0.17 0.16 0.15 0.18 0.20 0.22 0.21 0.16 0.12 0.10 0.10 0.10 0.10 0.11 0.11 0.10 0.20 0.18 0.19
0.39 0.35 0.36 0.40 0.44 0.44 0.35 0.35 0.38 0.31 0.22 0.16 0.21 0.20 0.22 0.22 0.22 0.22 0.24 0.28 0.33 0.33 0.26 0.21 0.15 0.12 0.14 0.14 0.16 0.26 0.26 0.28 0.21 0.18 0.14 0.12 0.17 0.26 0.27 0.24 0.10 0.24 0.30 0.31
0.40 0.36 0.38 0.40 0.44 0.46 0.39 0.35 0.42 0.35 0.24 0.23 0.22 0.19 0.23 0.27 0.25 0.21 0.22 0.24 0.24 0.28 0.23 0.18 0.17 0.16 0.23 0.19 0.20 0.22 0.25 0.25 0.21 0.20 0.18 0.20 0.26 0.27 0.27 0.12 0.14 0.37 0.47 0.49
0.37 0.35 0.39 0.41 0.43 0.45 0.42 0.37 0.45 0.38 0.29 0.25 0.25 0.27 0.23 0.23 0.24 0.20 0.22 0.21 0.22 0.21 0.18 0.20 0.19 0.20 0.21 0.22 0.25 0.24 0.23 0.21 0.22 0.22 0.19 0.16 0.32 0.33 0.22 0.32 0.41 0.47 0.52 0.53
0.34 0.37 0.40 0.41 0.43 0.45 0.46 0.36 0.48 0.49 0.36 0.27 0.33 0.32 0.33 0.30 0.29 0.25 0.25 0.24 0.24 0.24 0.22 0.22 0.24 0.21 0.23 0.23 0.19 0.32 0.22 0.28 0.23 0.25 0.23 0.29 0.34 0.34 0.44 0.50 0.46 0.51 0.52 0.56
0.34 0.38 0.40 0.41 0.43 0.47 0.47 0.42 0.47 0.45 0.36 0.29 0.27 0.22 0.29 0.34 0.33 0.36 0.22 0.24 0.27 0.29 0.37 0.31 0.27 0.22 0.25 0.21 0.22 0.27 0.31 0.37 0.30 0.31 0.36 0.38 0.39 0.43 0.44 0.49 0.48 0.55 0.55 0.55
0.36 0.39 0.40 0.42 0.43 0.45 0.49 0.43 0.48 0.45 0.37 0.22 0.20 0.30 0.25 0.31 0.31 0.32 0.33 0.30 0.34 0.36 0.36 0.28 0.25 0.22 0.30 0.25 0.27 0.27 0.34 0.36 0.32 0.33 0.39 0.42 0.44 0.46 0.49 0.50 0.54 0.53 0.54 0.52
0.38 0.40 0.41 0.42 0.43 0.45 0.49 0.48 0.50 0.50 0.36 0.22 0.20 0.26 0.25 0.29 0.30 0.28 0.32 0.31 0.31 0.31 0.29 0.27 0.25 0.28 0.31 0.32 0.32 0.29 0.36 0.33 0.29 0.28 0.40 0.41 0.42 0.49 0.53 0.53 0.51 0.52 0.51 0.47
0.41 0.41 0.43 0.41 0.44 0.45 0.43 0.34 0.46 0.50 0.48 0.28 0.17 0.24 0.22 0.27 0.29 0.28 0.30 0.32 0.33 0.33 0.30 0.28 0.31 0.35 0.32 0.26 0.25 0.34 0.38 0.41 0.41 0.37 0.44 0.46 0.48 0.49 0.52 0.50 0.51 0.52 0.51 0.51
0.42 0.44 0.42 0.41 0.42 0.46 0.36 0.33 0.44 0.53 0.49 0.28 0.20 0.17 0.26 0.34 0.37 0.35 0.30 0.34 0.33 0.32 0.32 0.31 0.32 0.33 0.35 0.28 0.23 0.33 0.38 0.40 0.41 0.41 0.42 0.39 0.42 0.40 0.48 0.49 0.49 0.50 0.49 0.49
0.44 0.44 0.41 0.41 0.44 0.49 0.41 0.44 0.54 0.54 0.41 0.33 0.20 0.17 0.23 0.36 0.31 0.30 0.39 0.32 0.35 0.36 0.35 0.36 0.33 0.35 0.34 0.25 0.32 0.36 0.38 0.38 0.38 0.37 0.39 0.39 0.42 0.44 0.44 0.45 0.45 0.43 0.42 0.42
0.44 0.41 0.40 0.46 0.43 0.37 0.41 0.49 0.52 0.55 0.41 0.23 0.21 0.17 0.19 0.38 0.36 0.39 0.40 0.41 0.30 0.40 0.32 0.33 0.35 0.30 0.26 0.31 0.33 0.35 0.36 0.35 0.35 0.37 0.38 0.38 0.38 0.39 0.40 0.40 0.40 0.38 0.38 0.40
0.40 0.40 0.36 0.30 0.39 0.51 0.52 0.45 0.36 0.36 0.36 0.32 0.21 0.25 0.20 0.29 0.34 0.30 0.31 0.37 0.32 0.26 0.32 0.39 0.30 0.28 0.35 0.37 0.38 0.37 0.37 0.37 0.36 0.33 0.32 0.34 0.33 0.35 0.36 0.37 0.38 0.38 0.37 0.38
0.41 0.34 0.32 0.43 0.54 0.46 0.37 0.30 0.28 0.28 0.23 0.26 0.23 0.25 0.22 0.30 0.24 0.25 0.34 0.31 0.33 0.25 0.29 0.30 0.28 0.25 0.32 0.37 0.38 0.38 0.37 0.35 0.34 0.35 0.35 0.35 0.35 0.34 0.34 0.34 0.36 0.37 0.37 0.36
0.38 0.44 0.49 0.48 0.39 0.33 0.26 0.24 0.26 0.23 0.19 0.24 0.23 0.26 0.29 0.30 0.34 0.30 0.34 0.29 0.30 0.22 0.35 0.29 0.23 0.28 0.35 0.36 0.36 0.37 0.37 0.34 0.34 0.33 0.33 0.33 0.34 0.34 0.33 0.33 0.33 0.34 0.36 0.37
0.48 0.42 0.35 0.33 0.31 0.23 0.19 0.16 0.19 0.19 0.21 0.23 0.26 0.25 0.32 0.34 0.36 0.32 0.31 0.26 0.24 0.32 0.25 0.23 0.25 0.30 0.32 0.32 0.32 0.32 0.32 0.32 0.31 0.29 0.30 0.30 0.30 0.32 0.31 0.31 0.32 0.33 0.33 0.35
0.35 0.31 0.23 0.24 0.21 0.21 0.21 0.20 0.20 0.23 0.23 0.27 0.30 0.30 0.30 0.34 0.30 0.32 0.26 0.30 0.30 0.22 0.19 0.20 0.26 0.29 0.31 0.32 0.32 0.29 0.28 0.28 0.26 0.26 0.27 0.27 0.27 0.28 0.29 0.29 0.30 0.31 0.31 0.33
0.32 0.31 0.21 0.21 0.26 0.27 0.28 0.29 0.27 0.29 0.28 0.28 0.30 0.33 0.34 0.32 0.30 0.30 0.28 0.23 0.20 0.21 0.20 0.25 0.29 0.29 0.29 0.29 0.29 0.29 0.28 0.28 0.27 0.26 0.26 0.26 0.26 0.26 0.26 0.27 0.28 0.29 0.29 0.30
0.34 0.29 0.26 0.28 0.25 0.26 0.30 0.31 0.30 0.33 0.30 0.34 0.33 0.30 0.28 0.26 0.27 0.24 0.22 0.20 0.18 0.21 0.25 0.28 0.29 0.28 0.28 0.28 0.28 0.28 0.27 0.27 0.26 0.26 0.26 0.25 0.25 0.24 0.25 0.26 0.26 0.26 0.27 0.28
0.29 0.27 0.30 0.29 0.29 0.28 0.30 0.33 0.33 0.37 0.32 0.27 0.29 0.25 0.24 0.30 0.24 0.22 0.24 0.21 0.23 0.25 0.26 0.28 0.29 0.29 0.29 0.29 0.29 0.29 0.28 0.27 0.26 0.25 0.25 0.24 0.24 0.24 0.23 0.23 0.24 0.25 0.26 0.27

GFSNW_prec_pwat_123.txt.gz
Precipitable_Water
0.42 0.40 0.42 0.36 0.33 0.31 0.33 0.26 0.21 0.25 0.35 0.20 0.16 0.13 0.12 0.14 0.14 0.19 0.17 0.17 0.18 0.17 0.17 0.15 0.15 0.15 0.17 0.21 0.21 0.19 0.19 0.23 0.14 0.14 0.23 0.33 0.33 0.32 0.36 0.28 0.22 0.26 0.24 0.24
0.40 0.43 0.40 0.35 0.32 0.33 0.30 0.24 0.19 0.26 0.34 0.15 0.13 0.15 0.15 0.16 0.16 0.16 0.16 0.14 0.15 0.17 0.16 0.15 0.16 0.16 0.21 0.23 0.23 0.20 0.28 0.19 0.17 0.15 0.13 0.31 0.28 0.32 0.33 0.35 0.34 0.27 0.25 0.28
0.40 0.38 0.37 0.33 0.32 0.32 0.34 0.23 0.17 0.21 0.23 0.19 0.16 0.14 0.13 0.13 0.17 0.14 0.15 0.16 0.19 0.23 0.22 0.23 0.21 0.20 0.24 0.32 0.27 0.27 0.26 0.19 0.17 0.14 0.15 0.25 0.23 0.28 0.31 0.27 0.24 0.27 0.30 0.35
0.40 0.39 0.36 0.33 0.34 0.32 0.33 0.27 0.18 0.20 0.16 0.17 0.16 0.16 0.15 0.15 0.14 0.19 0.22 0.20 0.24 0.23 0.19 0.21 0.21 0.26 0.29 0.26 0.28 0.26 0.23 0.18 0.21 0.18 0.13 0.16 0.16 0.19 0.25 0.26 0.27 0.23 0.24 0.28
0.38 0.41 0.36 0.31 0.33 0.33 0.30 0.18 0.19 0.19 0.17 0.18 0.18 0.16 0.16 0.14 0.17 0.19 0.20 0.21 0.23 0.25 0.22 0.24 0.21 0.23 0.23 0.26 0.32 0.28 0.27 0.24 0.22 0.17 0.17 0.15 0.12 0.16 0.20 0.23 0.24 0.25 0.25 0.22
0.43 0.40 0.33 0.32 0.34 0.38 0.28 0.26 0.27 0.24 0.16 0.18 0.18 0.18 0.16 0.16 0.20 0.23 0.25 0.24 0.25 0.22 0.23 0.24 0.25 0.28 0.28 0.28 0.25 0.25 0.26 0.23 0.19 0.15 0.18 0.17 0.11 0.11 0.13 0.17 0.21 0.23 0.19 0.21
0.40 0.36 0.33 0.34 0.35 0.38 0.31 0.29 0.25 0.23 0.16 0.18 0.17 0.16 0.16 0.18 0.20 0.20 0.24 0.25 0.22 0.23 0.29 0.29 0.29 0.28 0.29 0.28 0.26 0.29 0.25 0.23 0.22 0.17 0.18 0.12 0.16 0.17 0.15 0.16 0.18 0.20 0.19 0.18
0.40 0.36 0.35 0.35 0.36 0.35 0.34 0.32 0.28 0.25 0.18 0.18 0.15 0.15 0.17 0.20 0.22 0.23 0.22 0.24 0.26 0.29 0.26 0.22 0.20 0.19 0.22 0.23 0.29 0.26 0.26 0.24 0.20 0.17 0.16 0.18 0.16 0.27 0.20 0.19 0.17 0.19 0.19 0.21
0.37 0.35 0.35 0.36 0.37 0.33 0.36 0.34 0.36 0.28 0.22 0.18 0.18 0.18 0.19 0.17 0.20 0.21 0.22 0.26 0.27 0.28 0.23 0.23 0.18 0.17 0.18 0.19 0.24 0.35 0.34 0.34 0.25 0.20 0.16 0.13 0.24 0.27 0.31 0.27 0.15 0.32 0.32 0.28
0.37 0.37 0.34 0.36 0.41 0.35 0.38 0.35 0.40 0.30 0.25 0.24 0.21 0.19 0.21 0.23 0.22 0.20 0.22 0.21 0.21 0.25 0.20 0.18 0.18 0.16 0.21 0.18 0.19 0.21 0.23 0.25 0.23 0.21 0.19 0.21 0.36 0.35 0.33 0.20 0.26 0.43 0.39 0.36
0.43 0.41 0.37 0.37 0.41 0.40 0.40 0.36 0.38 0.33 0.26 0.29 0.26 0.26 0.22 0.23 0.22 0.19 0.24 0.20 0.26 0.21 0.16 0.19 0.19 0.20 0.23 0.23 0.24 0.25 0.23 0.20 0.21 0.24 0.20 0.19 0.37 0.32 0.30 0.39 0.43 0.43 0.47 0.45
0.50 0.44 0.42 0.37 0.39 0.43 0.43 0.35 0.40 0.43 0.32 0.31 0.35 0.32 0.31 0.27 0.26 0.23 0.23 0.21 0.21 0.23 0.21 0.23 0.24 0.23 0.24 0.24 0.19 0.31 0.22 0.27 0.24 0.26 0.24 0.37 0.40 0.39 0.44 0.46 0.45 0.46 0.47 0.50
0.48 0.45 0.43 0.38 0.38 0.42 0.42 0.40 0.39 0.39 0.30 0.28 0.29 0.27 0.31 0.31 0.29 0.32 0.21 0.23 0.26 0.26 0.34 0.29 0.27 0.21 0.24 0.21 0.22 0.27 0.32 0.38 0.29 0.30 0.34 0.36 0.41 0.44 0.46 0.47 0.46 0.49 0.51 0.49
0.46 0.43 0.42 0.38 0.38 0.42 0.44 0.41 0.43 0.38 0.33 0.24 0.27 0.34 0.28 0.30 0.30 0.30 0.29 0.26 0.29 0.30 0.29 0.26 0.24 0.22 0.29 0.24 0.27 0.27 0.33 0.36 0.30 0.32 0.34 0.36 0.41 0.43 0.45 0.47 0.49 0.50 0.51 0.49
0.43 0.40 0.39 0.40 0.39 0.43 0.46 0.48 0.46 0.44 0.34 0.26 0.27 0.30 0.31 0.31 0.29 0.28 0.30 0.30 0.28 0.26 0.25 0.24 0.23 0.27 0.28 0.30 0.29 0.31 0.34 0.31 0.28 0.27 0.36 0.36 0.38 0.44 0.45 0.45 0.45 0.46 0.45 0.45
0.40 0.37 0.39 0.40 0.39 0.47 0.45 0.31 0.42 0.46 0.44 0.30 0.21 0.31 0.27 0.27 0.28 0.27 0.28 0.30 0.29 0.28 0.26 0.25 0.28 0.31 0.31 0.26 0.24 0.35 0.37 0.40 0.40 0.35 0.40 0.40 0.43 0.46 0.46 0.44 0.43 0.43 0.41 0.41
0.39 0.36 0.38 0.40 0.40 0.43 0.36 0.32 0.43 0.47 0.47 0.30 0.22 0.22 0.28 0.31 0.31 0.33 0.31 0.33 0.30 0.29 0.29 0.26 0.27 0.30 0.35 0.29 0.24 0.36 0.36 0.39 0.41 0.41 0.41 0.39 0.40 0.38 0.41 0.41 0.41 0.41 0.41 0.41
0.39 0.37 0.41 0.41 0.41 0.44 0.37 0.44 0.49 0.49 0.38 0.33 0.21 0.19 0.22 0.30 0.31 0.32 0.39 0.32 0.33 0.31 0.28 0.31 0.31 0.34 0.35 0.26 0.33 0.35 0.36 0.37 0.38 0.37 0.40 0.38 0.39 0.38 0.38 0.38 0.38 0.36 0.35 0.37
0.39 0.41 0.42 0.42 0.39 0.34 0.37 0.50 0.49 0.50 0.39 0.26 0.23 0.18 0.19 0.34 0.34 0.39 0.38 0.39 0.27 0.35 0.30 0.30 0.33 0.30 0.27 0.32 0.33 0.33 0.35 0.34 0.33 0.35 0.36 0.36 0.35 0.35 0.35 0.35 0.35 0.34 0.34 0.35
0.44 0.43 0.34 0.26 0.34 0.45 0.44 0.41 0.34 0.35 0.35 0.32 0.22 0.25 0.20 0.27 0.33 0.33 0.30 0.33 0.29 0.26 0.30 0.36 0.30 0.28 0.34 0.35 0.36 0.36 0.35 0.34 0.34 0.31 0.30 0.30 0.30 0.31 0.32 0.33 0.34 0.33 0.33 0.33
0.40 0.32 0.28 0.41 0.43 0.40 0.36 0.28 0.26 0.27 0.24 0.27 0.25 0.24 0.21 0.30 0.25 0.26 0.30 0.29 0.33 0.24 0.30 0.29 0.28 0.27 0.30 0.35 0.36 0.37 0.36 0.34 0.33 0.33 0.32 0.31 0.31 0.30 0.30 0.30 0.31 0.31 0.31 0.31
0.41 0.40 0.45 0.43 0.36 0.32 0.25 0.23 0.26 0.25 0.20 0.26 0.24 0.25 0.25 0.29 0.33 0.28 0.29 0.27 0.30 0.22 0.36 0.28 0.23 0.28 0.32 0.33 0.34 0.35 0.34 0.32 0.31 0.31 0.30 0.29 0.28 0.28 0.27 0.27 0.28 0.29 0.30 0.31
0.45 0.37 0.32 0.31 0.29 0.22 0.19 0.17 0.20 0.21 0.25 0.28 0.27 0.24 0.26 0.30 0.32 0.29 0.29 0.25 0.23 0.33 0.26 0.22 0.24 0.29 0.31 0.32 0.32 0.32 0.32 0.31 0.30 0.30 0.29 0.28 0.27 0.27 0.27 0.26 0.27 0.28 0.28 0.29
0.29 0.27 0.22 0.23 0.21 0.21 0.21 0.21 0.22 0.27 0.29 0.29 0.29 0.27 0.28 0.32 0.27 0.30 0.24 0.28 0.29 0.23 0.20 0.22 0.27 0.30 0.32 0.33 0.32 0.30 0.29 0.29 0.28 0.28 0.27 0.26 0.26 0.25 0.26 0.25 0.25 0.25 0.24 0.26
0.27 0.29 0.19 0.20 0.29 0.29 0.31 0.31 0.30 0.33 0.35 0.32 0.31 0.31 0.31 0.29 0.27 0.29 0.28 0.25 0.21 0.23 0.24 0.28 0.31 0.32 0.31 0.31 0.30 0.30 0.29 0.28 0.27 0.28 0.27 0.26 0.25 0.24 0.24 0.24 0.24 0.24 0.24 0.24
0.30 0.30 0.27 0.30 0.27 0.27 0.28 0.30 0.30 0.35 0.35 0.36 0.34 0.28 0.25 0.25 0.27 0.26 0.23 0.22 0.20 0.26 0.28 0.31 0.31 0.30 0.30 0.29 0.29 0.29 0.28 0.28 0.27 0.27 0.25 0.25 0.23 0.22 0.22 0.23 0.24 0.24 0.25 0.24
0.26 0.26 0.32 0.31 0.29 0.29 0.30 0.34 0.33 0.39 0.34 0.27 0.29 0.23 0.22 0.31 0.25 0.23 0.27 0.24 0.27 0.29 0.30 0.32 0.32 0.31 0.31 0.31 0.30 0.29 0.28 0.27 0.27 0.26 0.25 0.24 0.24 0.24 0.24 0.23 0.25 0.25 0.25 0.25

GFSNW_prec_pwat_126.txt.gz
Precipitable_Water
0.52 0.46 0.45 0.41 0.35 0.32 0.35 0.33 0.24 0.24 0.39 0.25 0.22 0.18 0.15 0.14 0.14 0.19 0.17 0.16 0.15 0.14 0.14 0.12 0.13 0.13 0.15 0.20 0.22 0.19 0.18 0.18 0.14 0.15 0.19 0.25 0.24 0.35 0.34 0.24 0.23 0.28 0.25 0.24
0.51 0.44 0.46 0.37 0.32 0.36 0.37 0.29 0.20 0.29 0.42 0.21 0.17 0.15 0.16 0.16 0.16 0.16 0.14 0.13 0.14 0.15 0.16 0.17 0.19 0.20 0.26 0.28 0.26 0.21 0.25 0.24 0.18 0.18 0.20 0.23 0.25 0.31 0.33 0.33 0.32 0.25 0.24 0.24
0.43 0.43 0.45 0.36 0.31 0.38 0.39 0.27 0.19 0.22 0.27 0.22 0.20 0.15 0.15 0.14 0.17 0.14 0.14 0.15 0.18 0.21 0.19 0.20 0.19 0.23 0.26 0.30 0.32 0.33 0.30 0.18 0.17 0.13 0.17 0.24 0.21 0.22 0.25 0.28 0.22 0.24 0.25 0.29
0.46 0.43 0.39 0.34 0.32 0.39 0.39 0.32 0.25 0.27 0.18 0.18 0.18 0.18 0.16 0.15 0.14 0.18 0.19 0.19 0.22 0.20 0.18 0.20 0.20 0.22 0.21 0.24 0.28 0.28 0.33 0.18 0.16 0.17 0.19 0.19 0.16 0.16 0.17 0.18 0.26 0.22 0.25 0.28
0.44 0.41 0.36 0.32 0.31 0.37 0.31 0.22 0.19 0.24 0.19 0.19 0.19 0.17 0.16 0.14 0.16 0.17 0.18 0.18 0.20 0.22 0.21 0.22 0.17 0.18 0.18 0.19 0.25 0.30 0.34 0.25 0.27 0.24 0.21 0.18 0.17 0.18 0.16 0.15 0.18 0.23 0.25 0.26
0.42 0.42 0.36 0.31 0.33 0.41 0.31 0.28 0.30 0.28 0.18 0.20 0.19 0.19 0.16 0.16 0.17 0.21 0.21 0.22 0.22 0.19 0.21 0.21 0.22 0.23 0.24 0.24 0.23 0.22 0.22 0.21 0.20 0.16 0.19 0.18 0.13 0.15 0.16 0.13 0.16 0.18 0.19 0.25
0.42 0.40 0.33 0.33 0.38 0.42 0.38 0.33 0.28 0.26 0.17 0.19 0.18 0.17 0.16 0.16 0.20 0.19 0.22 0.23 0.20 0.22 0.24 0.26 0.25 0.27 0.29 0.33 0.38 0.34 0.26 0.26 0.23 0.17 0.19 0.12 0.19 0.27 0.24 0.16 0.17 0.19 0.19 0.20
0.42 0.36 0.34 0.34 0.36 0.41 0.38 0.36 0.31 0.29 0.19 0.20 0.16 0.16 0.15 0.19 0.20 0.21 0.23 0.22 0.24 0.25 0.23 0.20 0.18 0.23 0.23 0.28 0.31 0.30 0.31 0.27 0.21 0.17 0.15 0.17 0.19 0.28 0.25 0.20 0.19 0.33 0.32 0.39
0.40 0.37 0.33 0.34 0.34 0.39 0.38 0.36 0.38 0.32 0.24 0.18 0.19 0.16 0.18 0.19 0.22 0.22 0.23 0.26 0.25 0.26 0.21 0.20 0.17 0.18 0.19 0.19 0.21 0.29 0.29 0.32 0.27 0.20 0.17 0.13 0.27 0.36 0.40 0.32 0.18 0.40 0.40 0.38
0.39 0.36 0.34 0.34 0.33 0.39 0.40 0.37 0.42 0.33 0.28 0.24 0.21 0.19 0.22 0.23 0.22 0.20 0.23 0.23 0.22 0.24 0.17 0.18 0.18 0.17 0.23 0.18 0.19 0.21 0.22 0.23 0.22 0.23 0.20 0.24 0.32 0.36 0.32 0.21 0.26 0.45 0.44 0.41
0.39 0.36 0.34 0.35 0.34 0.39 0.42 0.36 0.39 0.34 0.28 0.29 0.24 0.27 0.25 0.22 0.21 0.20 0.28 0.22 0.26 0.19 0.16 0.19 0.20 0.21 0.23 0.23 0.24 0.25 0.23 0.20 0.20 0.22 0.17 0.16 0.35 0.31 0.25 0.33 0.41 0.43 0.44 0.46
0.42 0.40 0.35 0.36 0.37 0.39 0.42 0.33 0.39 0.39 0.30 0.31 0.38 0.34 0.31 0.30 0.31 0.26 0.24 0.22 0.22 0.22 0.19 0.22 0.22 0.21 0.22 0.22 0.19 0.32 0.22 0.27 0.24 0.26 0.24 0.36 0.39 0.37 0.42 0.43 0.42 0.44 0.45 0.49
0.49 0.46 0.41 0.36 0.36 0.40 0.43 0.38 0.38 0.35 0.29 0.27 0.27 0.26 0.34 0.31 0.27 0.31 0.20 0.28 0.29 0.29 0.29 0.23 0.24 0.20 0.22 0.20 0.23 0.26 0.31 0.39 0.28 0.29 0.34 0.34 0.40 0.43 0.44 0.45 0.44 0.47 0.49 0.48
0.49 0.46 0.44 0.42 0.36 0.40 0.43 0.42 0.41 0.36 0.32 0.23 0.28 0.36 0.33 0.35 0.32 0.30 0.27 0.30 0.33 0.28 0.26 0.22 0.21 0.20 0.26 0.23 0.25 0.27 0.34 0.36 0.30 0.31 0.35 0.35 0.40 0.42 0.44 0.45 0.47 0.46 0.46 0.46
0.48 0.45 0.45 0.43 0.37 0.39 0.43 0.48 0.48 0.45 0.34 0.26 0.28 0.34 0.34 0.34 0.31 0.27 0.28 0.28 0.27 0.25 0.23 0.23 0.20 0.24 0.24 0.27 0.28 0.32 0.35 0.31 0.28 0.27 0.37 0.36 0.38 0.44 0.44 0.42 0.40 0.41 0.39 0.38
0.48 0.44 0.43 0.42 0.38 0.42 0.43 0.31 0.42 0.44 0.41 0.29 0.21 0.35 0.32 0.31 0.28 0.27 0.28 0.29 0.29 0.28 0.25 0.23 0.24 0.29 0.28 0.26 0.24 0.35 0.37 0.39 0.40 0.36 0.41 0.43 0.42 0.42 0.42 0.39 0.39 0.40 0.37 0.38
0.45 0.42 0.42 0.39 0.38 0.45 0.37 0.32 0.42 0.43 0.44 0.30 0.22 0.23 0.30 0.29 0.30 0.29 0.28 0.32 0.31 0.29 0.29 0.24 0.24 0.25 0.31 0.28 0.23 0.37 0.36 0.37 0.40 0.40 0.40 0.37 0.38 0.36 0.39 0.38 0.37 0.38 0.36 0.36
0.43 0.39 0.39 0.40 0.43 0.48 0.41 0.44 0.43 0.44 0.37 0.33 0.21 0.18 0.24 0.30 0.24 0.29 0.39 0.34 0.34 0.31 0.27 0.27 0.27 0.32 0.35 0.25 0.34 0.35 0.36 0.36 0.37 0.36 0.39 0.37 0.38 0.37 0.36 0.36 0.35 0.34 0.33 0.34
0.42 0.40 0.43 0.43 0.38 0.33 0.37 0.48 0.45 0.48 0.38 0.26 0.23 0.18 0.22 0.38 0.31 0.42 0.41 0.38 0.27 0.34 0.28 0.28 0.31 0.29 0.26 0.33 0.32 0.33 0.35 0.34 0.34 0.35 0.36 0.34 0.33 0.32 0.33 0.33 0.33 0.31 0.30 0.31
0.43 0.42 0.35 0.28 0.34 0.47 0.44 0.38 0.31 0.32 0.34 0.32 0.22 0.25 0.22 0.26 0.33 0.35 0.31 0.33 0.27 0.26 0.30 0.36 0.30 0.28 0.35 0.36 0.37 0.36 0.35 0.35 0.34 0.31 0.30 0.30 0.29 0.29 0.29 0.29 0.30 0.30 0.30 0.30
0.40 0.32 0.29 0.40 0.44 0.36 0.32 0.25 0.24 0.26 0.22 0.26 0.25 0.23 0.21 0.27 0.24 0.28 0.34 0.29 0.31 0.24 0.29 0.30 0.28 0.28 0.32 0.36 0.35 0.36 0.35 0.34 0.32 0.32 0.31 0.30 0.30 0.28 0.27 0.28 0.28 0.28 0.28 0.28
0.37 0.39 0.43 0.41 0.31 0.28 0.23 0.22 0.23 0.23 0.20 0.26 0.24 0.26 0.26 0.29 0.32 0.27 0.30 0.25 0.28 0.20 0.36 0.30 0.24 0.30 0.36 0.34 0.33 0.32 0.32 0.31 0.30 0.31 0.31 0.30 0.29 0.29 0.28 0.27 0.26 0.26 0.27 0.27
0.42 0.34 0.29 0.27 0.26 0.19 0.17 0.15 0.20 0.20 0.25 0.31 0.29 0.24 0.30 0.32 0.32 0.27 0.27 0.23 0.22 0.33 0.27 0.23 0.26 0.31 0.31 0.31 0.31 0.30 0.32 0.30 0.30 0.30 0.29 0.28 0.26 0.26 0.26 0.25 0.25 0.25 0.25 0.25
0.33 0.27 0.21 0.21 0.21 0.20 0.20 0.20 0.22 0.26 0.30 0.31 0.31 0.26 0.26 0.27 0.25 0.27 0.22 0.25 0.27 0.21 0.19 0.22 0.29 0.30 0.31 0.32 0.32 0.30 0.31 0.31 0.29 0.28 0.27 0.27 0.25 0.24 0.24 0.24 0.23 0.23 0.22 0.23
0.28 0.27 0.21 0.21 0.27 0.29 0.31 0.33 0.31 0.30 0.34 0.35 0.32 0.29 0.29 0.28 0.27 0.26 0.26 0.24 0.21 0.23 0.24 0.30 0.32 0.31 0.31 0.30 0.31 0.31 0.30 0.29 0.29 0.29 0.27 0.26 0.24 0.23 0.22 0.23 0.23 0.21 0.22 0.22
0.29 0.27 0.25 0.28 0.26 0.29 0.30 0.32 0.33 0.38 0.37 0.39 0.36 0.29 0.25 0.24 0.26 0.24 0.22 0.21 0.20 0.27 0.30 0.32 0.32 0.32 0.32 0.32 0.32 0.31 0.30 0.29 0.28 0.27 0.26 0.25 0.23 0.22 0.22 0.24 0.23 0.22 0.23 0.22
0.24 0.24 0.32 0.31 0.30 0.29 0.31 0.33 0.34 0.40 0.35 0.30 0.31 0.25 0.22 0.27 0.23 0.22 0.27 0.26 0.29 0.32 0.32 0.33 0.33 0.33 0.33 0.32 0.32 0.31 0.30 0.28 0.27 0.26 0.24 0.24 0.25 0.23 0.23 0.21 0.23 0.22 0.25 0.25

GFSNW_prec_pwat_129.txt.gz
Precipitable_Water
0.72 0.63 0.55 0.43 0.38 0.38 0.39 0.37 0.24 0.27 0.42 0.26 0.28 0.17 0.17 0.16 0.15 0.19 0.19 0.18 0.17 0.13 0.13 0.13 0.14 0.16 0.21 0.26 0.25 0.18 0.22 0.19 0.13 0.15 0.18 0.26 0.25 0.26 0.30 0.24 0.22 0.25 0.24 0.23
0.62 0.58 0.52 0.43 0.37 0.39 0.41 0.32 0.19 0.29 0.42 0.19 0.17 0.19 0.17 0.17 0.17 0.18 0.16 0.14 0.15 0.16 0.18 0.15 0.17 0.18 0.24 0.26 0.23 0.21 0.23 0.20 0.14 0.13 0.19 0.24 0.24 0.26 0.26 0.30 0.31 0.22 0.19 0.23
0.58 0.52 0.46 0.39 0.38 0.45 0.44 0.29 0.16 0.24 0.32 0.27 0.21 0.15 0.16 0.15 0.18 0.15 0.15 0.16 0.20 0.21 0.17 0.20 0.17 0.18 0.22 0.23 0.22 0.26 0.28 0.23 0.20 0.15 0.16 0.19 0.23 0.23 0.22 0.21 0.19 0.20 0.20 0.23
0.52 0.48 0.48 0.39 0.36 0.46 0.45 0.36 0.23 0.22 0.16 0.17 0.19 0.19 0.16 0.14 0.15 0.18 0.19 0.20 0.21 0.17 0.14 0.17 0.17 0.17 0.16 0.18 0.22 0.28 0.27 0.20 0.24 0.21 0.20 0.21 0.20 0.20 0.18 0.18 0.16 0.17 0.17 0.23
0.55 0.47 0.39 0.35 0.41 0.48 0.34 0.24 0.23 0.28 0.23 0.20 0.16 0.17 0.16 0.15 0.18 0.16 0.19 0.16 0.16 0.20 0.20 0.19 0.13 0.14 0.15 0.18 0.23 0.24 0.30 0.19 0.22 0.16 0.20 0.23 0.19 0.18 0.18 0.18 0.17 0.15 0.18 0.21
0.44 0.43 0.37 0.33 0.41 0.42 0.32 0.33 0.32 0.26 0.19 0.18 0.18 0.19 0.17 0.18 0.16 0.19 0.19 0.18 0.18 0.18 0.19 0.19 0.17 0.24 0.28 0.29 0.26 0.30 0.32 0.23 0.20 0.14 0.18 0.16 0.13 0.18 0.20 0.24 0.18 0.20 0.18 0.30
0.44 0.42 0.35 0.34 0.39 0.43 0.38 0.35 0.32 0.22 0.15 0.19 0.19 0.20 0.18 0.16 0.17 0.16 0.18 0.22 0.18 0.20 0.20 0.22 0.24 0.28 0.29 0.33 0.34 0.36 0.27 0.24 0.23 0.16 0.18 0.11 0.25 0.32 0.31 0.29 0.30 0.33 0.34 0.35
0.47 0.40 0.34 0.37 0.42 0.43 0.39 0.38 0.32 0.27 0.18 0.20 0.18 0.17 0.16 0.17 0.19 0.17 0.20 0.21 0.23 0.22 0.21 0.17 0.16 0.22 0.24 0.29 0.29 0.28 0.28 0.26 0.21 0.16 0.16 0.18 0.26 0.29 0.29 0.27 0.27 0.35 0.35 0.36
0.44 0.37 0.34 0.37 0.40 0.41 0.40 0.38 0.41 0.33 0.21 0.18 0.20 0.16 0.17 0.18 0.19 0.21 0.24 0.26 0.25 0.24 0.18 0.18 0.15 0.16 0.18 0.18 0.21 0.28 0.27 0.30 0.26 0.22 0.16 0.15 0.23 0.31 0.34 0.33 0.23 0.37 0.39 0.37
0.41 0.35 0.32 0.35 0.40 0.39 0.39 0.36 0.42 0.35 0.24 0.23 0.21 0.20 0.19 0.20 0.22 0.22 0.26 0.24 0.20 0.23 0.16 0.16 0.16 0.16 0.22 0.17 0.18 0.20 0.20 0.21 0.21 0.20 0.19 0.23 0.30 0.31 0.33 0.18 0.23 0.37 0.39 0.40
0.41 0.35 0.33 0.36 0.38 0.41 0.38 0.34 0.39 0.34 0.26 0.26 0.26 0.28 0.25 0.23 0.23 0.19 0.25 0.24 0.22 0.15 0.13 0.16 0.16 0.17 0.21 0.20 0.23 0.24 0.22 0.19 0.19 0.21 0.16 0.14 0.35 0.31 0.23 0.32 0.39 0.40 0.41 0.43
0.38 0.36 0.35 0.35 0.37 0.41 0.41 0.28 0.36 0.39 0.30 0.30 0.34 0.32 0.34 0.32 0.28 0.24 0.25 0.22 0.22 0.22 0.17 0.18 0.18 0.19 0.20 0.20 0.18 0.30 0.21 0.28 0.23 0.25 0.24 0.35 0.39 0.37 0.41 0.42 0.40 0.41 0.43 0.45
0.39 0.37 0.37 0.37 0.36 0.39 0.41 0.33 0.32 0.30 0.24 0.24 0.25 0.22 0.30 0.32 0.32 0.34 0.20 0.27 0.29 0.25 0.25 0.20 0.18 0.16 0.21 0.16 0.21 0.24 0.30 0.37 0.27 0.28 0.33 0.34 0.38 0.42 0.43 0.44 0.43 0.45 0.45 0.44
0.47 0.42 0.38 0.35 0.38 0.38 0.42 0.37 0.36 0.33 0.29 0.21 0.27 0.38 0.31 0.37 0.31 0.26 0.25 0.31 0.32 0.30 0.24 0.18 0.17 0.16 0.23 0.20 0.23 0.25 0.32 0.36 0.29 0.30 0.34 0.35 0.40 0.41 0.42 0.43 0.44 0.42 0.40 0.40
0.48 0.47 0.45 0.38 0.36 0.38 0.42 0.45 0.44 0.42 0.29 0.22 0.25 0.33 0.34 0.35 0.31 0.26 0.27 0.25 0.23 0.21 0.18 0.19 0.17 0.21 0.21 0.23 0.27 0.31 0.34 0.31 0.26 0.27 0.36 0.36 0.37 0.42 0.42 0.39 0.38 0.39 0.36 0.35
0.49 0.47 0.46 0.42 0.38 0.39 0.36 0.28 0.42 0.41 0.38 0.23 0.18 0.33 0.32 0.32 0.33 0.28 0.26 0.25 0.25 0.25 0.22 0.22 0.23 0.24 0.25 0.23 0.23 0.33 0.36 0.39 0.38 0.35 0.39 0.42 0.41 0.41 0.40 0.37 0.36 0.38 0.35 0.35
0.49 0.46 0.44 0.43 0.38 0.39 0.32 0.30 0.39 0.39 0.38 0.25 0.19 0.21 0.32 0.31 0.29 0.28 0.26 0.29 0.29 0.29 0.28 0.24 0.23 0.23 0.27 0.25 0.23 0.34 0.35 0.39 0.40 0.39 0.37 0.36 0.38 0.35 0.37 0.37 0.36 0.36 0.35 0.34
0.47 0.44 0.45 0.41 0.41 0.45 0.37 0.41 0.42 0.41 0.33 0.32 0.19 0.19 0.24 0.32 0.23 0.27 0.35 0.32 0.32 0.31 0.28 0.27 0.23 0.29 0.32 0.25 0.35 0.34 0.35 0.37 0.36 0.36 0.37 0.36 0.36 0.35 0.34 0.35 0.34 0.31 0.30 0.30
0.44 0.46 0.44 0.39 0.36 0.33 0.38 0.45 0.44 0.42 0.32 0.23 0.22 0.17 0.22 0.35 0.30 0.37 0.39 0.38 0.25 0.33 0.26 0.26 0.29 0.28 0.25 0.32 0.35 0.33 0.34 0.33 0.33 0.35 0.34 0.34 0.32 0.31 0.30 0.30 0.30 0.28 0.28 0.28
0.47 0.42 0.32 0.24 0.33 0.46 0.42 0.37 0.29 0.27 0.29 0.29 0.20 0.25 0.23 0.31 0.31 0.34 0.31 0.33 0.26 0.22 0.29 0.34 0.28 0.27 0.35 0.37 0.37 0.36 0.34 0.33 0.33 0.30 0.30 0.30 0.28 0.28 0.28 0.28 0.28 0.27 0.27 0.27
0.37 0.31 0.29 0.37 0.45 0.36 0.31 0.23 0.20 0.21 0.18 0.23 0.23 0.23 0.21 0.29 0.22 0.25 0.33 0.29 0.28 0.22 0.28 0.29 0.27 0.27 0.33 0.38 0.36 0.34 0.32 0.32 0.31 0.31 0.30 0.30 0.30 0.28 0.28 0.27 0.27 0.26 0.26 0.25
0.34 0.37 0.43 0.40 0.31 0.26 0.21 0.19 0.20 0.19 0.16 0.23 0.24 0.24 0.24 0.26 0.32 0.25 0.28 0.25 0.27 0.18 0.34 0.29 0.25 0.31 0.37 0.37 0.33 0.32 0.31 0.30 0.30 0.30 0.29 0.28 0.28 0.28 0.27 0.25 0.24 0.23 0.23 0.23
0.43 0.34 0.30 0.26 0.25 0.18 0.15 0.13 0.16 0.15 0.21 0.28 0.29 0.25 0.29 0.31 0.32 0.27 0.24 0.20 0.20 0.31 0.25 0.24 0.27 0.33 0.33 0.33 0.31 0.31 0.31 0.30 0.30 0.29 0.30 0.29 0.27 0.26 0.25 0.23 0.23 0.22 0.22 0.21
0.31 0.25 0.19 0.19 0.18 0.17 0.17 0.15 0.16 0.21 0.26 0.30 0.31 0.29 0.26 0.29 0.25 0.26 0.19 0.22 0.25 0.19 0.18 0.21 0.28 0.33 0.31 0.31 0.31 0.30 0.29 0.30 0.30 0.29 0.29 0.27 0.25 0.23 0.23 0.24 0.23 0.21 0.20 0.19
0.26 0.26 0.17 0.17 0.24 0.27 0.29 0.29 0.28 0.32 0.35 0.35 0.33 0.29 0.28 0.26 0.24 0.25 0.23 0.22 0.19 0.21 0.22 0.29 0.34 0.33 0.32 0.32 0.32 0.31 0.30 0.30 0.29 0.30 0.28 0.26 0.24 0.23 0.22 0.22 0.23 0.21 0.20 0.20
0.31 0.26 0.23 0.27 0.23 0.25 0.31 0.33 0.34 0.40 0.37 0.38 0.36 0.29 0.25 0.24 0.25 0.23 0.20 0.19 0.18 0.25 0.32 0.33 0.33 0.33 0.32 0.32 0.33 0.32 0.31 0.32 0.31 0.29 0.27 0.25 0.24 0.22 0.23 0.23 0.23 0.21 0.22 0.21
0.27 0.25 0.30 0.29 0.29 0.29 0.32 0.34 0.35 0.42 0.35 0.31 0.32 0.25 0.22 0.27 0.22 0.21 0.26 0.23 0.28 0.34 0.34 0.35 0.34 0.33 0.32 0.33 0.33 0.33 0.32 0.32 0.30 0.27 0.26 0.25 0.24 0.23 0.22 0.20 0.21 0.23 0.23 0.22

GFSNW_prec_pwat_132.txt.gz
Precipitable_Water
0.81 0.79 0.76 0.66 0.53 0.46 0.46 0.42 0.28 0.37 0.40 0.25 0.30 0.17 0.18 0.19 0.17 0.17 0.16 0.17 0.15 0.13 0.14 0.13 0.15 0.16 0.19 0.25 0.24 0.18 0.21 0.17 0.12 0.13 0.18 0.27 0.29 0.25 0.27 0.19 0.19 0.24 0.22 0.22
0.77 0.75 0.66 0.55 0.47 0.46 0.47 0.34 0.23 0.34 0.46 0.21 0.19 0.21 0.19 0.17 0.15 0.17 0.16 0.15 0.15 0.16 0.17 0.14 0.18 0.17 0.25 0.24 0.21 0.19 0.22 0.17 0.11 0.12 0.16 0.21 0.20 0.25 0.26 0.28 0.28 0.20 0.17 0.16
0.74 0.70 0.58 0.49 0.44 0.49 0.48 0.30 0.17 0.30 0.37 0.30 0.20 0.18 0.17 0.15 0.19 0.17 0.15 0.14 0.18 0.19 0.17 0.19 0.16 0.18 0.21 0.19 0.17 0.23 0.27 0.21 0.18 0.13 0.16 0.20 0.18 0.20 0.22 0.22 0.19 0.18 0.18 0.17
0.68 0.60 0.54 0.45 0.43 0.55 0.50 0.38 0.23 0.27 0.21 0.23 0.22 0.19 0.16 0.14 0.14 0.17 0.19 0.20 0.20 0.19 0.13 0.16 0.16 0.16 0.14 0.20 0.22 0.25 0.25 0.17 0.20 0.21 0.22 0.23 0.22 0.21 0.20 0.18 0.19 0.16 0.15 0.17
0.59 0.57 0.47 0.44 0.49 0.54 0.44 0.31 0.24 0.28 0.24 0.24 0.21 0.17 0.15 0.15 0.16 0.15 0.17 0.17 0.18 0.19 0.17 0.16 0.12 0.13 0.17 0.20 0.24 0.24 0.27 0.20 0.23 0.18 0.20 0.20 0.17 0.20 0.20 0.22 0.24 0.21 0.21 0.25
0.56 0.52 0.42 0.38 0.51 0.53 0.38 0.36 0.36 0.26 0.21 0.18 0.15 0.15 0.16 0.17 0.19 0.17 0.20 0.17 0.16 0.16 0.16 0.17 0.15 0.23 0.29 0.29 0.27 0.24 0.25 0.23 0.19 0.14 0.18 0.19 0.16 0.22 0.25 0.29 0.32 0.30 0.21 0.29
0.50 0.45 0.43 0.46 0.49 0.46 0.42 0.42 0.36 0.22 0.16 0.17 0.18 0.19 0.18 0.15 0.14 0.15 0.19 0.21 0.18 0.19 0.20 0.21 0.26 0.30 0.31 0.30 0.29 0.31 0.24 0.22 0.23 0.18 0.18 0.11 0.24 0.30 0.33 0.30 0.32 0.33 0.33 0.35
0.52 0.42 0.38 0.42 0.47 0.48 0.42 0.41 0.33 0.22 0.16 0.19 0.19 0.18 0.16 0.14 0.19 0.18 0.20 0.20 0.21 0.20 0.19 0.19 0.19 0.21 0.23 0.24 0.27 0.27 0.30 0.26 0.21 0.18 0.17 0.20 0.21 0.27 0.27 0.26 0.26 0.34 0.32 0.33
0.45 0.41 0.41 0.46 0.44 0.43 0.41 0.38 0.40 0.29 0.17 0.17 0.20 0.16 0.15 0.15 0.17 0.18 0.21 0.25 0.25 0.20 0.17 0.18 0.14 0.13 0.17 0.16 0.19 0.26 0.26 0.29 0.23 0.20 0.16 0.13 0.22 0.28 0.35 0.32 0.21 0.34 0.35 0.34
0.40 0.36 0.40 0.41 0.43 0.44 0.41 0.38 0.40 0.28 0.18 0.23 0.20 0.14 0.16 0.21 0.22 0.20 0.23 0.22 0.19 0.20 0.15 0.15 0.15 0.14 0.20 0.15 0.16 0.19 0.19 0.20 0.18 0.17 0.17 0.21 0.29 0.31 0.33 0.19 0.21 0.34 0.37 0.37
0.39 0.37 0.41 0.42 0.44 0.41 0.37 0.34 0.41 0.29 0.22 0.25 0.26 0.27 0.21 0.22 0.22 0.18 0.22 0.21 0.19 0.13 0.12 0.14 0.15 0.15 0.18 0.18 0.22 0.22 0.20 0.18 0.17 0.20 0.15 0.13 0.34 0.32 0.24 0.32 0.38 0.38 0.39 0.40
0.38 0.39 0.39 0.40 0.42 0.37 0.35 0.28 0.38 0.39 0.27 0.26 0.33 0.33 0.34 0.30 0.28 0.24 0.24 0.21 0.20 0.19 0.15 0.15 0.14 0.15 0.19 0.17 0.16 0.29 0.20 0.26 0.22 0.24 0.23 0.34 0.38 0.36 0.41 0.42 0.39 0.39 0.40 0.42
0.39 0.39 0.36 0.40 0.40 0.36 0.33 0.29 0.31 0.31 0.24 0.25 0.24 0.21 0.29 0.34 0.33 0.33 0.21 0.24 0.26 0.22 0.24 0.17 0.15 0.12 0.18 0.13 0.17 0.22 0.28 0.36 0.27 0.27 0.32 0.34 0.37 0.41 0.42 0.43 0.42 0.43 0.41 0.40
0.39 0.39 0.36 0.40 0.39 0.37 0.34 0.29 0.32 0.28 0.26 0.21 0.25 0.36 0.29 0.34 0.29 0.29 0.31 0.28 0.29 0.28 0.24 0.17 0.13 0.12 0.20 0.17 0.20 0.23 0.28 0.34 0.29 0.29 0.34 0.36 0.39 0.40 0.42 0.41 0.42 0.40 0.39 0.37
0.39 0.38 0.40 0.38 0.37 0.40 0.38 0.36 0.37 0.36 0.25 0.19 0.24 0.31 0.33 0.34 0.31 0.25 0.24 0.25 0.25 0.23 0.18 0.16 0.13 0.18 0.18 0.21 0.23 0.26 0.33 0.31 0.26 0.25 0.35 0.35 0.37 0.41 0.41 0.38 0.38 0.37 0.35 0.34
0.45 0.40 0.38 0.37 0.37 0.38 0.32 0.25 0.36 0.37 0.33 0.20 0.17 0.32 0.31 0.31 0.31 0.27 0.23 0.21 0.22 0.22 0.20 0.19 0.22 0.25 0.19 0.19 0.20 0.30 0.34 0.37 0.38 0.33 0.39 0.39 0.40 0.39 0.40 0.37 0.37 0.36 0.33 0.33
0.48 0.46 0.43 0.39 0.37 0.35 0.26 0.25 0.32 0.36 0.33 0.21 0.17 0.21 0.30 0.30 0.28 0.27 0.25 0.28 0.27 0.28 0.27 0.24 0.23 0.22 0.24 0.21 0.18 0.30 0.34 0.37 0.40 0.40 0.37 0.35 0.36 0.34 0.36 0.36 0.35 0.34 0.32 0.31
0.47 0.47 0.43 0.40 0.40 0.39 0.30 0.36 0.38 0.39 0.30 0.26 0.15 0.19 0.23 0.30 0.23 0.23 0.33 0.30 0.32 0.31 0.29 0.28 0.23 0.24 0.26 0.21 0.30 0.33 0.35 0.36 0.35 0.36 0.36 0.36 0.36 0.35 0.33 0.33 0.31 0.29 0.28 0.28
0.47 0.46 0.44 0.37 0.35 0.29 0.32 0.41 0.41 0.40 0.29 0.18 0.17 0.15 0.17 0.33 0.28 0.32 0.35 0.36 0.25 0.32 0.25 0.25 0.27 0.25 0.23 0.29 0.32 0.32 0.34 0.34 0.34 0.35 0.35 0.35 0.33 0.31 0.30 0.29 0.29 0.27 0.26 0.27
0.47 0.39 0.29 0.24 0.33 0.45 0.40 0.33 0.24 0.23 0.25 0.23 0.17 0.25 0.22 0.30 0.29 0.30 0.30 0.32 0.25 0.20 0.27 0.32 0.27 0.26 0.32 0.35 0.36 0.35 0.35 0.35 0.34 0.31 0.29 0.28 0.28 0.29 0.29 0.28 0.28 0.26 0.25 0.25
0.36 0.29 0.29 0.39 0.46 0.34 0.27 0.19 0.17 0.19 0.15 0.19 0.20 0.22 0.23 0.31 0.23 0.24 0.31 0.27 0.26 0.20 0.25 0.27 0.26 0.25 0.32 0.35 0.36 0.37 0.35 0.33 0.31 0.30 0.30 0.30 0.28 0.27 0.26 0.25 0.25 0.24 0.23 0.22
0.35 0.37 0.42 0.40 0.30 0.23 0.18 0.15 0.18 0.18 0.15 0.22 0.21 0.22 0.24 0.27 0.33 0.25 0.29 0.23 0.26 0.17 0.33 0.26 0.23 0.31 0.38 0.37 0.36 0.34 0.32 0.31 0.30 0.30 0.29 0.28 0.28 0.27 0.26 0.24 0.23 0.22 0.22 0.21
0.41 0.32 0.28 0.24 0.24 0.15 0.13 0.11 0.14 0.15 0.19 0.24 0.26 0.23 0.26 0.28 0.30 0.26 0.24 0.20 0.19 0.28 0.23 0.21 0.25 0.32 0.35 0.34 0.33 0.32 0.32 0.31 0.29 0.29 0.29 0.28 0.27 0.26 0.25 0.23 0.23 0.22 0.21 0.21
0.26 0.22 0.17 0.18 0.15 0.16 0.16 0.15 0.17 0.22 0.24 0.25 0.28 0.28 0.26 0.29 0.25 0.26 0.19 0.20 0.23 0.19 0.17 0.18 0.25 0.30 0.33 0.32 0.32 0.31 0.30 0.30 0.29 0.29 0.29 0.27 0.26 0.25 0.25 0.24 0.23 0.21 0.19 0.20
0.24 0.23 0.15 0.16 0.24 0.26 0.28 0.29 0.28 0.30 0.32 0.31 0.30 0.29 0.27 0.25 0.23 0.24 0.22 0.20 0.17 0.18 0.18 0.25 0.31 0.33 0.32 0.32 0.32 0.32 0.31 0.31 0.30 0.30 0.29 0.28 0.27 0.25 0.24 0.24 0.23 0.21 0.21 0.20
0.28 0.25 0.22 0.25 0.24 0.25 0.28 0.30 0.29 0.37 0.37 0.37 0.34 0.27 0.23 0.22 0.23 0.21 0.19 0.18 0.17 0.22 0.30 0.35 0.35 0.34 0.34 0.34 0.33 0.33 0.32 0.32 0.32 0.31 0.30 0.28 0.26 0.24 0.23 0.23 0.22 0.22 0.21 0.20
0.25 0.23 0.29 0.27 0.25 0.25 0.27 0.30 0.33 0.41 0.36 0.30 0.31 0.24 0.21 0.26 0.22 0.20 0.25 0.22 0.26 0.31 0.34 0.36 0.36 0.34 0.34 0.34 0.33 0.33 0.33 0.32 0.31 0.29 0.28 0.27 0.26 0.25 0.22 0.20 0.20 0.22 0.22 0.22

GFSNW_prec_pwat_135.txt.gz
Precipitable_Water
0.79 0.77 0.77 0.74 0.75 0.63 0.59 0.47 0.32 0.52 0.45 0.24 0.27 0.22 0.21 0.22 0.21 0.22 0.19 0.17 0.14 0.13 0.14 0.14 0.14 0.14 0.18 0.24 0.23 0.15 0.19 0.15 0.10 0.11 0.18 0.22 0.21 0.22 0.26 0.18 0.16 0.21 0.20 0.19
0.72 0.75 0.73 0.75 0.72 0.64 0.56 0.40 0.38 0.48 0.46 0.22 0.19 0.24 0.22 0.22 0.20 0.18 0.16 0.14 0.15 0.18 0.15 0.12 0.17 0.17 0.23 0.24 0.19 0.15 0.17 0.14 0.10 0.11 0.15 0.23 0.20 0.22 0.25 0.28 0.26 0.19 0.16 0.16
0.75 0.74 0.76 0.76 0.66 0.60 0.58 0.37 0.27 0.34 0.41 0.40 0.24 0.22 0.19 0.16 0.19 0.17 0.17 0.17 0.19 0.16 0.16 0.17 0.15 0.16 0.19 0.17 0.18 0.21 0.24 0.18 0.15 0.11 0.13 0.19 0.18 0.20 0.24 0.23 0.16 0.17 0.16 0.18
0.78 0.78 0.75 0.70 0.57 0.61 0.56 0.40 0.28 0.32 0.26 0.28 0.24 0.21 0.19 0.16 0.14 0.18 0.20 0.18 0.17 0.16 0.12 0.14 0.14 0.15 0.13 0.19 0.22 0.26 0.25 0.15 0.20 0.20 0.20 0.21 0.21 0.23 0.23 0.19 0.21 0.18 0.19 0.22
0.75 0.72 0.65 0.57 0.53 0.62 0.50 0.35 0.32 0.34 0.27 0.27 0.22 0.20 0.16 0.15 0.18 0.17 0.16 0.16 0.19 0.16 0.13 0.14 0.11 0.12 0.16 0.20 0.27 0.26 0.28 0.17 0.20 0.17 0.19 0.20 0.19 0.22 0.25 0.24 0.22 0.24 0.26 0.25
0.72 0.66 0.60 0.50 0.55 0.57 0.46 0.44 0.39 0.29 0.26 0.24 0.20 0.19 0.19 0.16 0.17 0.19 0.18 0.18 0.16 0.14 0.15 0.16 0.15 0.18 0.23 0.25 0.23 0.23 0.25 0.22 0.20 0.14 0.20 0.19 0.17 0.23 0.25 0.27 0.29 0.30 0.22 0.27
0.66 0.57 0.51 0.52 0.58 0.57 0.46 0.44 0.36 0.27 0.22 0.23 0.22 0.20 0.18 0.17 0.16 0.14 0.19 0.18 0.15 0.18 0.20 0.19 0.23 0.27 0.29 0.28 0.27 0.29 0.24 0.23 0.22 0.16 0.20 0.12 0.21 0.28 0.29 0.28 0.29 0.31 0.31 0.32
0.58 0.50 0.46 0.49 0.56 0.58 0.48 0.49 0.36 0.23 0.18 0.21 0.19 0.18 0.17 0.19 0.18 0.16 0.18 0.19 0.20 0.20 0.18 0.17 0.18 0.21 0.23 0.24 0.26 0.27 0.29 0.25 0.19 0.16 0.17 0.20 0.22 0.25 0.25 0.25 0.25 0.32 0.31 0.33
0.54 0.49 0.50 0.54 0.52 0.52 0.50 0.42 0.43 0.27 0.20 0.18 0.22 0.17 0.18 0.13 0.14 0.17 0.19 0.23 0.24 0.17 0.18 0.18 0.13 0.12 0.16 0.16 0.18 0.26 0.26 0.27 0.21 0.18 0.16 0.14 0.22 0.28 0.33 0.35 0.20 0.32 0.33 0.33
0.43 0.41 0.47 0.54 0.54 0.47 0.42 0.44 0.45 0.28 0.18 0.25 0.22 0.14 0.14 0.18 0.18 0.16 0.19 0.19 0.17 0.18 0.14 0.14 0.14 0.14 0.20 0.14 0.14 0.17 0.18 0.19 0.16 0.16 0.14 0.19 0.27 0.31 0.34 0.19 0.21 0.35 0.36 0.36
0.48 0.48 0.50 0.49 0.46 0.48 0.45 0.39 0.39 0.25 0.22 0.26 0.26 0.21 0.18 0.20 0.21 0.16 0.21 0.19 0.17 0.13 0.10 0.12 0.14 0.14 0.17 0.17 0.19 0.20 0.18 0.17 0.17 0.18 0.15 0.12 0.33 0.31 0.24 0.32 0.38 0.38 0.38 0.39
0.43 0.50 0.53 0.51 0.45 0.41 0.41 0.32 0.38 0.36 0.24 0.25 0.32 0.29 0.30 0.27 0.27 0.24 0.24 0.19 0.18 0.16 0.12 0.13 0.15 0.14 0.18 0.16 0.14 0.28 0.18 0.23 0.21 0.22 0.21 0.32 0.37 0.36 0.40 0.41 0.38 0.40 0.39 0.39
0.43 0.45 0.45 0.41 0.38 0.37 0.38 0.35 0.34 0.29 0.24 0.25 0.24 0.23 0.32 0.34 0.33 0.34 0.21 0.23 0.25 0.19 0.20 0.14 0.13 0.09 0.16 0.11 0.15 0.20 0.24 0.32 0.27 0.26 0.31 0.34 0.36 0.40 0.41 0.42 0.40 0.41 0.40 0.37
0.43 0.44 0.42 0.38 0.36 0.36 0.36 0.32 0.35 0.27 0.24 0.18 0.23 0.34 0.27 0.32 0.32 0.31 0.30 0.27 0.27 0.25 0.23 0.15 0.12 0.10 0.18 0.14 0.18 0.17 0.23 0.31 0.29 0.27 0.33 0.35 0.38 0.39 0.41 0.40 0.40 0.38 0.38 0.36
0.39 0.42 0.41 0.38 0.36 0.34 0.32 0.30 0.32 0.33 0.22 0.18 0.22 0.29 0.32 0.32 0.28 0.25 0.30 0.27 0.24 0.21 0.18 0.16 0.12 0.15 0.16 0.18 0.19 0.18 0.30 0.28 0.25 0.23 0.33 0.33 0.36 0.41 0.41 0.38 0.37 0.37 0.34 0.31
0.40 0.41 0.39 0.38 0.37 0.32 0.26 0.18 0.30 0.33 0.31 0.22 0.17 0.32 0.30 0.33 0.32 0.25 0.21 0.22 0.22 0.19 0.16 0.16 0.19 0.23 0.19 0.14 0.15 0.26 0.32 0.35 0.36 0.33 0.38 0.38 0.39 0.39 0.39 0.36 0.35 0.34 0.32 0.31
0.42 0.40 0.37 0.38 0.38 0.32 0.23 0.20 0.28 0.34 0.31 0.21 0.19 0.21 0.29 0.31 0.29 0.26 0.24 0.26 0.24 0.23 0.22 0.22 0.22 0.22 0.25 0.18 0.14 0.23 0.32 0.36 0.38 0.40 0.40 0.35 0.36 0.34 0.36 0.35 0.34 0.32 0.31 0.29
0.40 0.38 0.37 0.39 0.36 0.33 0.26 0.33 0.35 0.34 0.26 0.22 0.16 0.19 0.22 0.29 0.22 0.21 0.29 0.26 0.29 0.29 0.27 0.27 0.23 0.24 0.22 0.14 0.23 0.30 0.34 0.35 0.36 0.36 0.38 0.36 0.36 0.36 0.34 0.32 0.30 0.28 0.27 0.28
0.44 0.41 0.37 0.35 0.31 0.25 0.28 0.39 0.35 0.35 0.26 0.15 0.16 0.16 0.15 0.30 0.27 0.30 0.32 0.32 0.23 0.31 0.24 0.24 0.26 0.22 0.18 0.23 0.29 0.31 0.33 0.33 0.34 0.36 0.34 0.34 0.32 0.31 0.30 0.30 0.29 0.27 0.25 0.25
0.45 0.35 0.27 0.24 0.32 0.40 0.36 0.26 0.19 0.19 0.23 0.22 0.17 0.24 0.20 0.27 0.26 0.26 0.27 0.30 0.24 0.18 0.23 0.31 0.24 0.23 0.30 0.33 0.34 0.34 0.34 0.36 0.36 0.31 0.29 0.29 0.28 0.28 0.28 0.26 0.26 0.25 0.24 0.23
0.36 0.28 0.28 0.39 0.44 0.30 0.23 0.15 0.15 0.15 0.14 0.18 0.20 0.24 0.21 0.32 0.23 0.24 0.29 0.24 0.24 0.18 0.23 0.24 0.23 0.23 0.29 0.33 0.34 0.36 0.38 0.36 0.32 0.31 0.30 0.29 0.28 0.27 0.26 0.26 0.24 0.23 0.22 0.21
0.34 0.36 0.43 0.39 0.27 0.19 0.14 0.13 0.17 0.15 0.13 0.21 0.18 0.22 0.25 0.27 0.32 0.24 0.27 0.22 0.24 0.16 0.29 0.24 0.19 0.27 0.33 0.35 0.36 0.37 0.34 0.32 0.31 0.31 0.29 0.28 0.28 0.27 0.26 0.24 0.24 0.23 0.22 0.21
0.39 0.31 0.25 0.21 0.22 0.12 0.11 0.09 0.12 0.13 0.20 0.23 0.23 0.19 0.23 0.29 0.29 0.24 0.22 0.19 0.18 0.26 0.21 0.18 0.21 0.28 0.32 0.34 0.34 0.32 0.32 0.31 0.30 0.29 0.29 0.29 0.27 0.27 0.26 0.25 0.25 0.23 0.21 0.21
0.26 0.21 0.16 0.18 0.15 0.14 0.15 0.15 0.17 0.22 0.24 0.25 0.27 0.23 0.23 0.26 0.22 0.24 0.18 0.20 0.22 0.17 0.15 0.16 0.23 0.30 0.31 0.33 0.32 0.31 0.30 0.30 0.30 0.30 0.30 0.29 0.28 0.27 0.27 0.26 0.25 0.23 0.22 0.21
0.24 0.22 0.14 0.18 0.22 0.25 0.26 0.26 0.27 0.28 0.31 0.29 0.27 0.26 0.25 0.23 0.21 0.23 0.21 0.18 0.15 0.17 0.16 0.23 0.30 0.33 0.34 0.33 0.32 0.32 0.32 0.32 0.31 0.31 0.30 0.29 0.28 0.26 0.25 0.25 0.24 0.23 0.22 0.20
0.26 0.25 0.20 0.25 0.24 0.24 0.26 0.28 0.28 0.34 0.34 0.34 0.32 0.25 0.21 0.20 0.21 0.19 0.17 0.16 0.15 0.20 0.27 0.32 0.34 0.35 0.35 0.34 0.34 0.34 0.33 0.32 0.32 0.31 0.30 0.29 0.28 0.26 0.25 0.24 0.23 0.23 0.22 0.21
0.25 0.23 0.27 0.26 0.25 0.25 0.27 0.30 0.32 0.39 0.34 0.27 0.28 0.21 0.20 0.26 0.21 0.18 0.22 0.19 0.24 0.28 0.32 0.36 0.36 0.35 0.35 0.35 0.34 0.33 0.33 0.33 0.31 0.31 0.30 0.29 0.28 0.27 0.24 0.22 0.22 0.22 0.21 0.22

GFSNW_prec_pwat_138.txt.gz
Precipitable_Water
0.81 0.75 0.90 0.94 0.80 0.75 0.64 0.56 0.39 0.58 0.59 0.33 0.35 0.27 0.25 0.23 0.21 0.23 0.22 0.21 0.19 0.17 0.17 0.14 0.14 0.13 0.17 0.24 0.21 0.15 0.19 0.15 0.10 0.12 0.18 0.20 0.21 0.18 0.21 0.15 0.15 0.19 0.18 0.14
0.79 0.73 0.89 0.87 0.74 0.67 0.63 0.51 0.50 0.60 0.53 0.24 0.24 0.25 0.22 0.24 0.24 0.22 0.22 0.19 0.19 0.20 0.17 0.13 0.16 0.18 0.24 0.23 0.17 0.15 0.17 0.13 0.08 0.11 0.15 0.19 0.16 0.19 0.22 0.25 0.24 0.16 0.14 0.14
0.77 0.73 0.89 0.83 0.70 0.68 0.59 0.47 0.39 0.46 0.43 0.43 0.24 0.24 0.23 0.21 0.24 0.21 0.20 0.20 0.19 0.17 0.15 0.17 0.17 0.16 0.20 0.20 0.18 0.20 0.21 0.15 0.12 0.09 0.11 0.16 0.14 0.18 0.22 0.23 0.17 0.15 0.16 0.17
0.75 0.74 0.83 0.82 0.63 0.66 0.58 0.46 0.36 0.40 0.32 0.33 0.30 0.24 0.23 0.20 0.19 0.23 0.24 0.19 0.16 0.14 0.15 0.15 0.14 0.16 0.14 0.19 0.23 0.24 0.22 0.13 0.15 0.14 0.17 0.19 0.18 0.19 0.21 0.21 0.23 0.17 0.19 0.22
0.74 0.75 0.80 0.64 0.63 0.69 0.58 0.42 0.37 0.39 0.32 0.35 0.29 0.26 0.22 0.23 0.22 0.18 0.16 0.15 0.19 0.20 0.12 0.13 0.13 0.12 0.14 0.16 0.23 0.22 0.26 0.16 0.18 0.14 0.18 0.19 0.18 0.21 0.21 0.24 0.25 0.23 0.25 0.25
0.77 0.74 0.66 0.71 0.70 0.69 0.54 0.52 0.49 0.37 0.36 0.32 0.27 0.26 0.24 0.19 0.19 0.19 0.20 0.21 0.18 0.14 0.16 0.16 0.15 0.15 0.19 0.20 0.19 0.21 0.22 0.20 0.17 0.12 0.20 0.20 0.16 0.20 0.22 0.25 0.27 0.27 0.22 0.28
0.70 0.70 0.73 0.72 0.67 0.66 0.57 0.50 0.43 0.33 0.27 0.27 0.26 0.24 0.22 0.18 0.18 0.18 0.23 0.21 0.15 0.19 0.22 0.20 0.20 0.21 0.23 0.24 0.25 0.27 0.22 0.22 0.21 0.15 0.19 0.12 0.21 0.27 0.26 0.25 0.28 0.30 0.30 0.31
0.76 0.77 0.73 0.62 0.64 0.67 0.55 0.52 0.41 0.33 0.25 0.28 0.26 0.24 0.20 0.23 0.23 0.19 0.18 0.19 0.20 0.22 0.17 0.15 0.14 0.17 0.20 0.22 0.25 0.25 0.27 0.23 0.18 0.15 0.15 0.19 0.23 0.25 0.25 0.23 0.24 0.32 0.30 0.32
0.71 0.67 0.60 0.57 0.63 0.62 0.55 0.49 0.46 0.33 0.27 0.23 0.27 0.24 0.25 0.16 0.16 0.17 0.20 0.24 0.24 0.19 0.16 0.14 0.10 0.10 0.14 0.15 0.17 0.26 0.26 0.27 0.20 0.18 0.13 0.12 0.21 0.27 0.33 0.33 0.20 0.33 0.34 0.33
0.62 0.55 0.55 0.58 0.60 0.59 0.55 0.49 0.47 0.35 0.26 0.31 0.26 0.17 0.17 0.19 0.17 0.17 0.19 0.19 0.16 0.19 0.14 0.12 0.12 0.12 0.18 0.13 0.12 0.15 0.17 0.19 0.16 0.16 0.14 0.17 0.27 0.29 0.34 0.20 0.22 0.36 0.36 0.36
0.54 0.55 0.58 0.58 0.55 0.55 0.52 0.47 0.48 0.31 0.25 0.27 0.26 0.25 0.18 0.18 0.19 0.14 0.19 0.16 0.14 0.12 0.09 0.11 0.13 0.13 0.16 0.15 0.16 0.18 0.16 0.16 0.16 0.18 0.15 0.12 0.31 0.30 0.24 0.31 0.37 0.38 0.38 0.38
0.56 0.59 0.59 0.57 0.56 0.52 0.49 0.36 0.41 0.38 0.28 0.28 0.32 0.28 0.29 0.26 0.25 0.20 0.21 0.16 0.15 0.14 0.10 0.12 0.14 0.13 0.16 0.14 0.10 0.25 0.17 0.22 0.20 0.21 0.20 0.31 0.36 0.34 0.39 0.40 0.37 0.39 0.39 0.38
0.51 0.50 0.49 0.50 0.49 0.47 0.42 0.38 0.38 0.33 0.26 0.26 0.25 0.25 0.31 0.33 0.32 0.34 0.19 0.22 0.23 0.17 0.19 0.13 0.12 0.08 0.14 0.09 0.11 0.17 0.22 0.29 0.24 0.26 0.29 0.32 0.36 0.39 0.40 0.41 0.39 0.40 0.39 0.38
0.54 0.50 0.45 0.43 0.45 0.48 0.45 0.35 0.35 0.28 0.26 0.21 0.24 0.35 0.29 0.33 0.32 0.30 0.29 0.25 0.25 0.23 0.19 0.13 0.10 0.07 0.16 0.11 0.13 0.16 0.19 0.25 0.26 0.27 0.31 0.33 0.37 0.39 0.41 0.41 0.41 0.39 0.38 0.35
0.47 0.46 0.44 0.43 0.43 0.40 0.38 0.37 0.36 0.33 0.21 0.19 0.22 0.28 0.30 0.29 0.29 0.28 0.28 0.25 0.23 0.19 0.16 0.14 0.10 0.13 0.13 0.15 0.16 0.12 0.19 0.23 0.23 0.22 0.32 0.32 0.34 0.40 0.40 0.38 0.36 0.35 0.34 0.31
0.44 0.40 0.37 0.35 0.35 0.36 0.32 0.24 0.33 0.33 0.29 0.20 0.17 0.31 0.29 0.30 0.26 0.26 0.26 0.26 0.23 0.20 0.15 0.13 0.15 0.20 0.16 0.11 0.12 0.18 0.28 0.32 0.33 0.31 0.37 0.38 0.38 0.39 0.39 0.36 0.35 0.35 0.32 0.30
0.40 0.38 0.37 0.35 0.34 0.32 0.22 0.18 0.28 0.34 0.31 0.21 0.19 0.21 0.29 0.31 0.27 0.24 0.21 0.23 0.21 0.19 0.18 0.18 0.20 0.21 0.23 0.19 0.12 0.19 0.28 0.32 0.35 0.39 0.38 0.35 0.37 0.34 0.37 0.35 0.34 0.32 0.30 0.30
0.38 0.38 0.37 0.35 0.33 0.30 0.26 0.33 0.35 0.31 0.22 0.22 0.17 0.19 0.22 0.30 0.21 0.19 0.27 0.23 0.26 0.26 0.25 0.26 0.22 0.23 0.22 0.14 0.18 0.22 0.28 0.33 0.35 0.36 0.37 0.37 0.37 0.36 0.35 0.33 0.31 0.29 0.27 0.26
0.38 0.38 0.34 0.32 0.29 0.23 0.27 0.36 0.33 0.31 0.21 0.14 0.18 0.15 0.14 0.29 0.25 0.28 0.27 0.29 0.21 0.29 0.23 0.23 0.24 0.21 0.17 0.19 0.24 0.28 0.32 0.33 0.33 0.35 0.36 0.34 0.32 0.31 0.30 0.29 0.27 0.25 0.24 0.23
0.37 0.31 0.23 0.22 0.31 0.38 0.33 0.23 0.17 0.17 0.20 0.21 0.19 0.24 0.17 0.25 0.25 0.24 0.26 0.28 0.22 0.17 0.21 0.28 0.22 0.20 0.27 0.31 0.32 0.33 0.34 0.34 0.36 0.33 0.30 0.29 0.28 0.27 0.27 0.26 0.26 0.25 0.23 0.22
0.30 0.24 0.24 0.36 0.43 0.27 0.19 0.13 0.13 0.13 0.12 0.20 0.24 0.23 0.19 0.31 0.20 0.23 0.28 0.22 0.22 0.16 0.21 0.21 0.19 0.18 0.28 0.33 0.33 0.34 0.36 0.38 0.36 0.33 0.31 0.30 0.28 0.27 0.26 0.26 0.26 0.25 0.23 0.22
0.33 0.33 0.38 0.36 0.23 0.16 0.12 0.12 0.14 0.13 0.12 0.19 0.22 0.23 0.26 0.28 0.31 0.24 0.26 0.21 0.21 0.14 0.27 0.21 0.15 0.23 0.30 0.33 0.36 0.37 0.37 0.35 0.32 0.31 0.29 0.29 0.28 0.28 0.27 0.26 0.26 0.24 0.24 0.23
0.38 0.27 0.22 0.22 0.19 0.10 0.09 0.08 0.11 0.12 0.19 0.20 0.23 0.21 0.26 0.29 0.28 0.22 0.22 0.17 0.16 0.25 0.19 0.17 0.19 0.25 0.28 0.31 0.35 0.34 0.33 0.32 0.30 0.29 0.30 0.29 0.29 0.29 0.28 0.27 0.26 0.25 0.23 0.24
0.26 0.19 0.14 0.16 0.13 0.12 0.13 0.13 0.14 0.20 0.21 0.21 0.22 0.22 0.23 0.26 0.21 0.21 0.16 0.19 0.21 0.16 0.14 0.15 0.23 0.27 0.30 0.33 0.32 0.31 0.31 0.31 0.31 0.30 0.30 0.29 0.29 0.28 0.28 0.27 0.26 0.24 0.23 0.23
0.22 0.20 0.15 0.18 0.20 0.23 0.24 0.26 0.25 0.26 0.27 0.25 0.23 0.23 0.24 0.21 0.19 0.21 0.19 0.17 0.14 0.15 0.14 0.22 0.28 0.31 0.32 0.33 0.33 0.32 0.32 0.32 0.31 0.31 0.30 0.29 0.29 0.28 0.26 0.26 0.25 0.25 0.24 0.23
0.26 0.25 0.22 0.24 0.24 0.25 0.27 0.27 0.25 0.31 0.29 0.31 0.27 0.22 0.19 0.18 0.19 0.17 0.15 0.14 0.13 0.17 0.24 0.29 0.31 0.33 0.34 0.35 0.35 0.34 0.34 0.33 0.32 0.31 0.30 0.30 0.29 0.27 0.26 0.25 0.25 0.24 0.23 0.22
0.24 0.23 0.29 0.28 0.27 0.26 0.29 0.32 0.30 0.36 0.31 0.25 0.25 0.19 0.17 0.23 0.18 0.16 0.20 0.17 0.21 0.26 0.29 0.31 0.32 0.33 0.35 0.35 0.34 0.33 0.32 0.32 0.31 0.30 0.29 0.29 0.28 0.27 0.25 0.23 0.24 0.24 0.22 0.22